Regional Weather Roundup
Issued by NWS

Home | Current Version | Previous Version | Text Only | Print | Product List | Glossary Off
Versions: 1 2 3 4 5 6 7 8 9 10 11 12 13 14 15 16 17 18 19 20 21 22 23 24 25 26 27 28 29 30 31 32 33 34 35 36 37 38 39 40 41 42 43 44 45 46 47 48 49 50

000
ASUS43 KOAX 171002
RWRNE

WEATHER ROUNDUP FOR NEBRASKA
NATIONAL WEATHER SERVICE OMAHA NE
500 AM CDT THU AUG 17 2017

NOTES: SATELLITE DATA IS BEING USED TO AUGMENT CLOUD COVER ABOVE
       12000 FEET.
       "FAIR" INDICATES FEW OR NO CLOUDS BELOW 12,000 FEET WITH NO
       SIGNIFICANT WEATHER AND/OR OBSTRUCTIONS TO VISIBILITY.


NEZ001>004-019>022-054>056-171100-
NEBRASKA PANHANDLE

CITY           SKY/WX    TMP DP  RH WIND       PRES   REMARKS
SCOTTSBLUFF    CLEAR     54  49  83 E7        30.06S
ALLIANCE       CLEAR     49  46  90 W6        30.05S
CHADRON        CLEAR     51  48  89 S3        29.99F
GORDON         FAIR      48  46  92 CALM      30.02S
KIMBALL        CLEAR     54  52  94 SW7       30.13S
SIDNEY         CLEAR     53  51  93 SW8       30.10S
$$

NEZ057>060-069>072-079>082-171100-
SOUTHWEST NEBRASKA

CITY           SKY/WX    TMP DP  RH WIND       PRES   REMARKS
NORTH PLATTE   CLEAR     51  50  96 NW5       30.04S
IMPERIAL       CLEAR     53  51  93 CALM      30.06F
LEXINGTON      CLEAR     54  52  92 CALM      30.01R
MCCOOK         CLEAR     58  57  97 W9        30.03S
OGALLALA       CLEAR     51  51  97 W3        30.05F
$$

NEZ005>010-023>029-035>040-094-171100-
NORTH CENTRAL NEBRASKA

CITY           SKY/WX    TMP DP  RH WIND       PRES   REMARKS
VALENTINE      CLEAR     53  48  83 W8        29.98S
AINSWORTH      CLEAR     51  50  94 W7        29.97S
BROKEN BOW     CLEAR     56  51  84 NW3       29.98S
O`NEILL        CLEAR     55  54  96 W6        29.92R
ORD            CLEAR     56  51  84 W7        29.95R
THEDFORD       CLEAR     53  51  92 W5        30.03R
$$

NEZ041-046>049-061>064-073>077-083>087-171100-
SOUTH CENTRAL NEBRASKA

CITY           SKY/WX    TMP DP  RH WIND       PRES   REMARKS
GRAND ISLAND   CLEAR     57  57 100 W8        29.96R
AURORA         CLEAR     58  58 100 W5        29.96R
HASTINGS       CLEAR     56  54  93 W6        29.99R
HEBRON         CLEAR     61  59  94 CALM      29.95R
HOLDREGE       CLEAR     55  52  89 W6        30.00R
KEARNEY        CLEAR     57  54  89 W5        30.00R
YORK           CLEAR     59  59 100 W7        29.94R
$$

NEZ011>018-030>034-042>045-171100-
NORTHEAST NEBRASKA

CITY           SKY/WX    TMP DP  RH WIND       PRES   REMARKS
NORFOLK        CLEAR     59  56  89 W10       29.87R
ALBION         CLEAR     58  56  93 CALM      29.92R
BLAIR          RAIN      64  62  91 W8        29.85R
COLUMBUS       CLEAR     61  58  90 W9        29.91R
FREMONT        CLEAR     63  61  94 W13       29.86R
TEKAMAH        CLOUDY    66  61  84 W8        29.83R
WAYNE          CLEAR     62  59  91 NW8       29.84S
$$

NEZ050>053-065>068-078-088>093-171100-
SOUTHEAST NEBRASKA

CITY           SKY/WX    TMP DP  RH WIND       PRES   REMARKS
LINCOLN        CLEAR     64  60  87 W8        29.91R
OMAHA EPPLEY   CLOUDY    67  60  78 W9        29.85R
BEATRICE       CLEAR     62  60  95 W6        29.92R
FALLS CITY     CLEAR     64  61  90 W10       29.88R
NEBRASKA CITY  CLEAR     62  62 100 W8        29.88R
PLATTSMOUTH    CLEAR     63  60  91 W9        29.86S
$$

NEZ044-045-051>053-067-171100-
OMAHA AREA

CITY           SKY/WX    TMP DP  RH WIND       PRES   REMARKS
OMAHA EPPLEY   CLOUDY    67  60  78 W9        29.85R
BLAIR          RAIN      64  62  91 W8        29.85R
FREMONT        CLEAR     63  61  94 W13       29.86R
MILLARD        CLEAR     65  62  89 W8        29.86R
OFFUTT AFB     CLEAR     63  60  88 W9        29.85R
PLATTSMOUTH    CLEAR     63  60  91 W9        29.86S
WAHOO          FAIR      64  61  93 W10       29.87R
$$



USA.gov is the U.S. government's official web portal to all federal, state and local government web resources and services.